Location: Caltech
(34.1382°N, 118.1253°W)
Time: 23:57:27
(UTC-07:00)

Oscar 11 - Visible Passes

Search period start: 25 June 2017 00:00
Search period end: 05 July 2017 00:00
Orbit: 614 x 626 km, 97.7° (Epoch: 25 June)

Date Brightness Start Highest point End Pass type
(mag) Time Alt. Az. Time Alt. Az. Time Alt. Az.
25 Jun 7.7 20:30:12 10° SE 20:34:14 39° ENE 20:38:16 10° N visible
25 Jun 9.7 22:08:06 10° SW 22:10:29 14° W 22:12:51 10° WNW visible
26 Jun 7.1 20:47:11 10° SSE 20:51:28 64° ENE 20:55:46 10° N visible
27 Jun 7.2 21:04:25 10° S 21:08:45 79° WSW 21:13:07 10° NNW visible
28 Jun 8.0 21:21:53 10° S 21:26:04 47° W 21:30:16 10° NNW visible
29 Jun 8.8 21:39:39 10° SSW 21:43:26 29° W 21:47:13 10° NW visible
30 Jun 9.5 21:57:48 10° SW 22:00:49 18° W 22:03:51 10° NW visible
01 Jul 7.4 20:37:44 10° SSE 20:41:55 49° ENE 20:46:06 10° N visible
01 Jul 9.9 22:16:54 10° WSW 22:18:15 11° W 22:19:38 10° WNW visible
02 Jul 7.0 20:54:50 10° SSE 20:59:10 81° ENE 21:03:31 10° N visible
03 Jul 7.5 21:12:11 10° S 21:16:28 62° W 21:20:46 10° NNW visible
04 Jul 8.4 21:29:47 10° SSW 21:33:48 37° W 21:37:50 10° NNW visible
